Flag for Australia Weather past 2 weeks in Samford, Queensland, Australia

Now
81 °F

Passing clouds.


Feels Like: 88 °F
Forecast: 75 / 90 °F
Wind: 5 mph from Northeast

Location: Brisbane Airport M. O

Current Time: Jan 26, 2015 at 3:10:23 AM

Latest Report: Jan 26, 2015 at 2:30 AM


Visibility: N/A

Pressure: 29.68 "Hg

Humidity: 94%

Dew point: 79 °F

Location of SamfordLocation

Historic Weather in Samford — Graph

°F

Samford temperature yesterday

Maximum temperature yesterday: 88 °F (at 12:00 PM)
Minimum temperature yesterday: 72 °F (at 3:00 AM)
Average temperature yesterday: 80 °F

Past Weeks' High & Low Weather Summary

 TemperatureHumidityPressure
High97 °F (Jan 15, 3:00 PM)100% (Jan 12, 11:00 PM)29.89 "Hg (Jan 12, 11:00 PM)
Low68 °F (Jan 20, 4:00 AM)28% (Jan 15, 4:00 PM)29.56 "Hg (Jan 15, 2:00 PM)
Average79 °F79%29.74 "Hg
* Reported Jan 11 2:00 AM — Jan 26 2:00 AM, Samford, Weather by CustomWeather, © 2014

Note: Actual official high and low records may vary slightly from our data, if they occured in-between our weather recording intervals... More about our weather records

Advertising

Samford weather history for previous 24 hours

 ConditionsComfort  
Time TempWeatherWind HumidityBarometerVisibility
2:00 AM
Jan 26
81 °FPartly cloudy.6 mph94%29.68 "HgN/A
1:30 AM81 °FPassing clouds.7 mph94%29.68 "HgN/A
1:00 AM81 °FPartly cloudy.No wind94%29.68 "HgN/A
12:30 AM81 °FPassing clouds.1 mph94%29.71 "HgN/A
12:00 AM81 °FPassing clouds.2 mph94%29.71 "HgN/A
11:30 PM
Jan 25
81 °FPassing clouds.5 mph94%29.71 "HgN/A
11:00 PM81 °FPassing clouds.5 mph94%29.68 "HgN/A
10:30 PM81 °FPassing clouds.3 mph94%29.68 "HgN/A
10:00 PM81 °FPassing clouds.3 mph94%29.71 "HgN/A
9:30 PM81 °FPassing clouds.6 mph94%29.71 "HgN/A
9:00 PM81 °FPassing clouds.8 mph94%29.68 "HgN/A
8:00 PM81 °FPassing clouds.10 mph94%29.68 "HgN/A
7:30 PM81 °FPassing clouds.10 mph94%29.68 "HgN/A
7:00 PM81 °FPassing clouds.13 mph94%29.65 "HgN/A
6:00 PM82 °FPassing clouds.15 mph89%29.62 "HgN/A
5:30 PM82 °FSunny.15 mph89%29.59 "Hg10 mi
5:00 PM84 °FSunny.14 mph79%29.59 "Hg10 mi
4:30 PM84 °FSunny.13 mph79%29.59 "Hg10 mi
4:00 PM84 °FSunny.15 mph84%29.59 "Hg10 mi
3:30 PM84 °FSunny.15 mph79%29.62 "Hg10 mi
3:00 PM86 °FSunny.16 mph75%29.59 "Hg10 mi
2:00 PM86 °FPassing clouds.14 mph75%29.62 "HgN/A
1:30 PM86 °FPassing clouds.15 mph70%29.62 "HgN/A
1:00 PM88 °FPassing clouds.13 mph66%29.62 "HgN/A
12:00 PM88 °FPassing clouds.10 mph66%29.65 "HgN/A
11:30 AM86 °FPassing clouds.8 mph70%29.65 "HgN/A
11:00 AM86 °FPassing clouds.9 mph70%29.68 "HgN/A
10:00 AM84 °FPassing clouds.9 mph70%29.68 "HgN/A
9:00 AM84 °FPassing clouds.8 mph70%29.71 "HgN/A
8:00 AM81 °FPassing clouds.6 mph70%29.71 "HgN/A
7:30 AM79 °FPassing clouds.5 mph79%29.71 "HgN/A
7:00 AM77 °FPassing clouds.5 mph79%29.71 "HgN/A
6:30 AM75 °FPassing clouds.5 mph83%29.71 "HgN/A
6:00 AM73 °FPassing clouds.5 mph89%29.71 "HgN/A
5:00 AM72 °FScattered clouds.1 mph94%29.68 "HgN/A
4:30 AM72 °FBroken clouds.3 mph94%29.71 "HgN/A
4:00 AM72 °FClear.6 mph94%29.68 "Hg10 mi
3:30 AM72 °FClear.3 mph94%29.68 "Hg10 mi
3:00 AM72 °FClear.5 mph94%29.68 "Hg10 mi
Weather by CustomWeather, © 2014

See weather overviewHow to use our weather pages